Lid_Strength_Index
2 2 2 2 1 1 5 8 12 5 2 9 8 14 9 7 8 7 10 9 11 12 12 12 13 12 10 8 9 11 10 12 16 14 10 9 10 13 13 18 19 17 18 17
2 2 2 2 1 2 8 9 7 4 3 12 11 10 9 8 9 10 10 11 10 11 12 13 11 11 8 8 10 12 11 13 16 16 13 10 13 12 12 13 14 17 19 17
2 2 2 2 1 1 7 8 12 10 5 6 9 10 10 11 7 9 8 9 9 11 12 11 12 11 9 7 9 7 9 12 14 17 15 13 15 13 12 13 17 17 16 15
2 2 2 2 1 1 6 7 12 8 14 11 10 10 10 11 12 8 8 10 10 11 13 12 13 11 10 8 8 8 11 14 13 12 12 12 12 13 12 14 14 16 14 15
2 2 2 2 1 1 6 10 10 9 10 9 11 10 11 12 10 10 10 11 9 10 12 11 13 12 11 11 9 10 9 14 13 14 12 12 14 12 12 12 12 13 12 13
2 3 2 2 1 2 6 5 5 9 11 11 12 11 11 11 9 8 8 9 10 10 10 9 9 9 9 9 10 11 11 12 14 16 13 14 16 13 13 13 12 12 15 12
2 3 2 1 1 2 5 5 5 9 15 12 12 11 10 10 10 10 9 8 10 7 6 7 7 8 8 8 9 8 12 12 13 16 14 20 13 11 11 11 10 10 10 9
3 3 2 1 1 1 4 4 5 8 16 11 11 11 11 10 9 9 9 7 7 6 8 11 12 12 12 11 10 11 10 13 16 17 17 15 13 11 11 12 12 9 10 9
3 3 2 1 1 1 3 4 3 6 13 13 10 11 10 11 11 11 9 6 6 7 10 12 15 16 14 14 13 10 11 11 14 16 18 22 14 9 8 9 15 9 9 9
3 3 2 2 1 1 2 3 2 5 10 9 9 11 11 9 11 12 10 10 9 8 12 14 15 15 12 15 14 14 14 13 15 16 16 15 10 9 8 15 14 8 9 8
3 3 2 2 1 1 2 3 2 5 9 10 8 8 10 10 10 13 11 11 11 10 13 13 13 14 12 13 12 13 14 15 16 14 16 18 8 9 13 10 7 8 9 11
3 3 2 1 2 2 1 4 2 2 6 8 6 6 6 7 7 9 10 10 11 8 12 11 11 13 13 12 16 10 16 12 14 13 13 9 8 9 8 7 9 9 9 10
3 2 2 1 2 1 2 3 3 4 6 6 8 8 6 5 6 5 11 10 7 7 7 10 10 12 10 14 13 11 11 8 12 12 10 10 8 8 9 10 11 10 10 11
2 2 2 1 1 1 1 3 3 4 6 11 10 6 7 6 5 6 7 7 6 6 6 8 10 11 8 11 10 11 10 9 12 11 10 10 10 10 9 10 10 12 13 13
2 2 1 1 1 1 1 2 3 3 6 12 11 8 7 6 6 6 6 6 7 7 8 9 10 9 9 9 9 13 10 12 14 13 11 11 12 11 11 13 13 13 13 15
2 1 1 1 1 1 4 8 3 3 4 8 14 9 8 7 7 7 8 7 6 5 7 8 8 7 9 12 15 11 10 10 10 10 10 11 11 12 12 14 14 15 15 15
1 0 1 0 0 2 5 8 5 2 4 9 13 13 8 7 8 8 8 6 6 6 7 8 10 10 7 10 12 12 11 11 11 10 10 11 12 14 13 13 14 14 15 16
1 0 0 0 1 2 4 2 2 3 6 7 12 13 10 6 9 9 7 9 8 7 7 7 9 8 9 14 13 12 12 12 12 12 11 12 12 13 14 13 14 16 16 17
0 0 -0 2 4 6 5 1 2 2 6 11 12 14 15 5 7 6 6 8 12 9 10 10 10 12 13 16 14 13 13 14 15 13 12 13 14 15 15 15 15 16 17 18
0 2 5 9 5 1 2 5 7 7 6 7 10 10 13 7 8 8 9 10 14 13 11 9 11 17 14 14 14 14 14 14 14 14 14 15 15 16 17 17 17 17 19 20
3 7 7 4 1 4 6 9 10 10 10 9 8 10 11 7 9 10 8 11 13 15 12 11 15 17 15 14 14 14 14 14 14 15 15 15 15 16 17 17 17 18 19 20
5 4 2 3 6 7 9 12 10 11 13 11 10 9 8 7 6 10 9 10 10 14 9 14 19 17 15 15 16 15 16 16 16 15 16 16 16 16 17 18 19 20 20 21
2 4 7 7 8 12 16 16 12 12 10 12 8 9 7 8 8 10 9 12 15 10 17 17 20 16 15 16 17 17 16 16 16 17 17 17 18 18 18 20 21 21 22 22
7 9 12 12 14 16 15 15 14 12 9 8 8 9 9 9 10 10 13 15 13 18 22 21 20 17 16 16 17 18 22 22 22 23 22 23 22 24 24 26 26 24 24 25
9 11 15 17 16 15 11 9 9 8 8 11 9 10 11 15 16 14 16 15 18 19 22 24 20 18 17 19 18 20 21 24 24 25 24 25 24 22 22 22 22 22 23 24
11 14 15 13 12 12 11 10 10 8 8 12 10 12 15 18 18 18 20 18 20 22 23 21 20 21 23 23 22 23 23 23 24 24 22 22 23 23 23 21 21 23 23 25
13 17 15 18 17 16 14 11 11 9 10 17 14 18 18 15 21 21 21 22 23 21 21 22 23 21 22 25 24 24 22 22 23 23 21 22 21 20 19 20 19 19 20 24